FENGYUN 1C DEB, 31609

Orbit data source: Space-Track

FENGYUN 1C DEB, 31609 is space debris in SSO originally from a launch on Mon, 10 May 1999 UTC launched from the Taiyaun Space Center, China (TSC). Fengyun 1C debris stems from the Chinese weather satellite Fengyun-1C, which was intentionally destroyed by a Chinese anti-satellite missile in 2007. This event dramatically increased the amount of space debris, with thousands of trackable fragments posing hazards to satellites and human spaceflight. The Fengyun 1C debris cloud has become a focal point in discussions about space sustainability and the need for international regulations to prevent the creation of new debris.

Loading next visibility...
Identifier
31609, 1999-025BZP
Orbit
SSO
Country
Flag of CNCN / PRC
Related business
Manufacturer
Unknown
Mission
Spacecraft
Bus & Motor
Unknown
Mass
Unknown
Launch date (UTC)
1999-05-10 (27 years ago)
Launch vehicle
Unknown
Launch site
Taiyaun Space Center, China (TSC)
Object type
Payload
Rocket body
Debris
Shape & HBR
Unknown shape, 0.1 m
Radar Cross Section
Small (<0.1 m²)

Expand to show TLE details & history
Last TLE update: 20 hours ago

TLE from 20 hours ago
0 FENGYUN 1C DEB
1 31609U 99025BZP 26236.09011822  .00001958  00000-0  95051-3 0  9992
2 31609  99.1983 278.3502 0089729 320.9294  66.4781 14.17493350696865
Epoch: 2026-08-24T02:09Z
TLE epoch observation values (Epoch: 2026-08-24T02:09:46.214Z)
Latitude
28.0013°
Longitude
-91.38256°
Altitude
811.921 km
Speed
7.463 km/s
True Right ascension
18h 13m 44s
True Declination
27° 51' 36"
Sunlit
Object was in daylight at epoch
Visualization orbit readout
Latitude
Unknown
Longitude
Unknown
Altitude
Unknown
Speed
Unknown
Apparent Right ascension
Unknown
Apparent Declination
Unknown
Sunlit
N/A
Visualization observer readout
Local Sidereal Time
13:14:34
Azimuth
Unknown
Elevation
Unknown
Doppler factor
Unknown
Orbital elements
Apogee altitude
895.715 km
Perigee altitude
766.341 km
Semi-major axis
7,209.165 km
Eccentricity
0.00897
Inclination
99.1983°
RAAN
278.3502°
Arg. of periapsis
320.9294°
True anomaly
67.42508°
Mean anomaly
66.4781°
Eccentric anomaly
66.95117°
Mean motion
3.54581 °/min
Orbital period
101.53 mins
BSTAR
0.00095051
Loading maneuver chart data...
Computing Atmospheric mass density...
Loading historical data...
Loading historical data...
Loading historical data...
Loading historical data...
Loading historical data...
Loading historical data...
Loading historical data...

Documentation

Showing up to 5 results
|